Location: ????????
(41.2031°N, 22.5756°E)
Time: 15:34:39
(UTC+00:00)

Cosmos 2237 Rocket - Pass Details

Date: 01 December 2020
Orbit: 833 x 851 km, 71.0° (Epoch: 21 January)

Event Time Altitude Azimuth Distance (km) Brightness Sun altitude
Rises 15:58:00 0° 247° (WSW) 3,373 7.6 -10.5°
Reaches altitude 10° 16:01:08 10° 264° (W) 2,444 6.0 -11.1°
Maximum altitude 16:05:05 19° 310° (NW) 1,880 4.4 -11.8°
Drops below altitude 10° 16:09:04 10° 355° (N) 2,460 4.5 -12.5°
Sets 16:12:15 0° 13° (NNE) 3,402 5.1 -13.0°
